ASTRA 3B

Last updated on Wed Sep 09 2026 00:02:59 GMT+0000 (Coordinated Universal Time)

1 36581U 10021A 26251.52100895 .00000116 00000+0 00000+0 0 9999 2 36581 1.6778 82.4139 0003898 59.2701 56.9775 1.00269619 59707
UTC large
Height (km)
Speed (km/s)
/
Latitude / Longitude
Inclination (degrees)
Orbital Period (minutes)
Azimuth
Elevation
Range (km)
Doppler Factor

Next 0 passes for location: London (51.5072 / 0.1276)

No passes found over London.
ASTRA 3B